STARLINK-11695 [DTC] (63551 NORAD) Tracking and Keplerian Element Data

This shows tracking and keplerian element data for the satellite.

Feedback or suggestion? Click here.




ElementValue
Catalog63551
NameSTARLINK-11695 [DTC]
Epoch Orbit4073
Epoch Day354.08567983
Epoch Year2025
RAAN273.2103
Inclination42.9989
Eccentricity0.0001336
Argument of Perigee253.598
Mean Anonmoly106.474
Mean Motion15.70866543
Decay Rate0.00120805
L11 63551U 25075D 25354.08567983 .00120805 00000+0 93030-3 0 9997
L22 63551 42.9989 273.2103 0001336 253.5980 106.4740 15.70866543 40737



Live tracking and technical data element details for STARLINK-11695 [DTC] (NORAD 63551). STARLINK-11695 [DTC] can be tracked NOW for your location showing map with azimuth and elevation plus other details from your city location.







IsCatalogInMostPopularTable: catalog: 63551, numindb: 8
Update: records affected: 1



GetName: 63551 STARLINK-11695 [DTC]

Hit Count: updated at: Sat, 11 Apr 2026 21:55:46 GMT